[[{"header":{"parameterUnit":"m.s-1","parameterCategory":1,"la1":30.2991,"la2":30.254,"lo1":-89.0895,"lo2":-89.0444,"dy":0.0017,"dx":0.0017,"nx":28,"ny":28,"refTime":"2025-08-30T03:00:00:Z","depth":0,"parameterNumber":2,"parameterNumberName":"U-component_of_WINDS"},"data":[0,0,0,0,0,0,0,0,0,0,0,0,0,0,0,0,0,0,0,0,0,0,0,0,0,0,0,0,0,0,0,0,0,0,0,0,0,0,0,0,0,0,0,0,0,0,0,0,0,0,0,0,0,0,0,0,0,0,-3.6375,-3.6375,0,-3.6365,-3.6365,-3.6365,-3.6269,-3.6267,-3.6264,-3.6262,-3.6254,-3.6256,-3.6258,0,0,0,0,0,0,0,0,0,0,0,0,0,-3.6316,-3.6317,-3.6375,-3.6375,-3.6375,-3.6365,-3.6365,-3.6365,-3.627,-3.6267,-3.6264,-3.6261,-3.6253,-3.6256,-3.6258,0,0,0,0,0,0,0,0,0,0,0,0,0,-3.6327,-3.6318,-3.6375,-3.6326,-3.6322,-3.6365,-3.6365,-3.6365,-3.627,-3.6267,-3.6263,-3.626,-3.6253,-3.6255,-3.6258,-3.6349,0,0,-3.6268,-3.6269,0,0,0,0,0,0,0,0,-3.6327,-3.6329,-3.6334,-3.633,-3.6325,-3.6315,-3.6341,-3.6359,-3.6271,-3.629,-3.6262,-3.6258,-3.6277,-3.6278,-3.6284,-3.6348,-3.6348,-3.6268,-3.627,-3.6271,-3.6272,0,0,0,0,0,0,0,-3.6326,-3.6329,-3.6371,-3.6334,-3.6328,-3.6306,-3.6304,-3.6344,-3.6304,-3.6288,-3.6281,-3.6281,-3.6274,-3.6281,-3.6283,-3.6348,-3.6268,-3.627,-3.6272,-3.6273,-3.6488,-3.6492,0,0,0,0,0,0,-3.6332,-3.6329,-3.6372,-3.6371,-3.6317,-3.631,-3.6307,-3.6322,-3.6303,-3.6297,-3.6284,-3.6277,-3.6278,-3.628,-3.6282,-3.6389,-3.6271,-3.6274,-3.6275,-3.6485,-3.6489,-3.6494,0,0,0,0,0,0,-3.6331,-3.6336,-3.6372,-3.6348,-3.6351,-3.6315,-3.6332,-3.6323,-3.633,-3.63,-3.6293,-3.6299,-3.6275,-3.6278,-3.6333,-3.6387,-3.6275,-3.6278,-3.648,-3.6486,-3.6491,-3.6602,0,0,0,0,0,0,-3.6329,-3.6336,-3.637,-3.635,-3.6353,-3.6422,-3.6335,-3.6326,-3.6336,-3.6326,-3.6312,-3.6306,-3.6273,-3.6329,-3.6336,-3.6389,-3.628,-3.6475,-3.6483,-3.649,-3.6593,-3.6611,-3.6626,0,0,0,0,0,-3.6328,-3.6401,-3.6372,-3.6377,-3.6393,-3.6426,-3.6427,-3.6387,-3.634,-3.6374,-3.6355,-3.6307,-3.638,-3.6336,-3.6343,-3.6398,-3.6471,-3.6481,-3.6489,-3.6586,-3.6607,-3.6625,0,0,0,0,0,0,-3.6428,-3.6397,-3.6365,-3.6433,-3.6433,-3.6409,-3.645,-3.641,-3.6423,-3.6414,-3.6363,-3.6361,-3.6425,-3.6416,-3.6368,-3.6485,-3.6418,-3.6428,-3.6489,-3.6509,-3.6525,-3.6526,-3.6283,0,0,0,0,0,-3.6458,-3.6486,-3.6458,-3.6522,-3.6523,-3.6487,-3.65,-3.6469,-3.6466,-3.6466,-3.645,-3.6451,-3.6474,-3.6491,-3.651,-3.6591,-3.6588,-3.6632,-3.6649,-3.6662,-3.6673,-3.6718,-3.6738,-3.6522,-3.6522,-3.6522,0,0,-3.6521,-3.6507,-3.6528,-3.6542,-3.6537,-3.6569,-3.6488,-3.6524,-3.6548,-3.6471,-3.6523,-3.6512,-3.651,-3.6579,-3.6608,-3.6574,-3.6731,-3.6673,-3.6684,-3.6687,-3.6729,-3.6749,-3.6767,-3.6528,-3.6527,-3.6526,0,0,-3.6651,-3.6643,-3.6696,-3.6694,-3.6689,-3.6665,-3.6678,-3.6661,-3.6651,-3.6702,-3.6647,-3.6674,-3.6715,-3.6716,-3.6722,-3.6856,-3.6813,-3.6863,-3.6949,-3.6994,-3.7011,-3.7025,-3.7076,-3.7094,-3.6873,-3.6874,-3.6874,0,-3.673,-3.6775,-3.6729,-3.677,-3.6779,-3.6711,-3.6766,-3.6766,-3.6768,-3.6776,-3.6737,-3.6788,-3.6781,-3.6851,-3.6884,-3.689,-3.6906,-3.6865,-3.7012,-3.7026,-3.7039,-3.7087,-3.7106,-3.688,-3.6879,-3.6879,-3.6878,0,-3.6873,-3.6905,-3.6949,-3.6953,-3.6967,-3.7014,-3.6977,-3.6996,-3.6964,-3.6945,-3.7,-3.6989,-3.7007,-3.7021,-3.6989,-3.7087,-3.7066,-3.702,-3.6951,-3.7067,-3.7111,-3.7128,-3.6889,-3.6887,-3.6885,-3.6884,0,0,-3.7067,-3.7046,-3.7063,-3.7065,-3.7056,-3.708,-3.7126,-3.7143,-3.7162,-3.7165,-3.7204,-3.7241,-3.7199,-3.7206,-3.7174,-3.7213,-3.7323,-3.7162,-3.7162,-3.7195,-3.7434,-3.747,-3.7492,-3.7294,-3.7297,-3.73,-3.7435,0,-3.7195,-3.7271,-3.7232,-3.7314,-3.7344,-3.7281,-3.7321,-3.7321,-3.7304,-3.7329,-3.7311,-3.7339,-3.728,-3.7284,-3.7319,-3.7303,-3.7371,-3.7292,-3.7332,-3.7334,-3.7337,-3.7514,-3.7552,-3.768,-3.7451,-3.7454,-3.7456,0,-3.7354,-3.7365,-3.7451,-3.7437,-3.7449,-3.7485,-3.7499,-3.7523,-3.7522,-3.7507,-3.7516,-3.7476,-3.7522,-3.7453,-3.7516,-3.7464,-3.7478,-3.7472,-3.7476,-3.748,-3.7404,-3.7525,-3.7719,-3.774,-3.7482,-3.748,-3.7478,0,-3.749,-3.7527,-3.7583,-3.7586,-3.7572,-3.7599,-3.7595,-3.759,-3.7604,-3.7616,-3.7625,-3.7642,-3.7653,-3.7668,-3.7635,-3.7587,-3.7704,-3.7631,-3.7696,-3.7697,-3.7724,-3.7723,-3.7926,-3.773,-3.773,-3.7729,-3.7729,0,-3.7638,-3.7693,-3.7644,-3.7679,-3.774,-3.7695,-3.7757,-3.7745,-3.7742,-3.7775,-3.7721,-3.7753,-3.7706,-3.7735,-3.7709,-3.7767,-3.7772,-3.7763,-3.7756,-3.7769,-3.7771,-3.7779,-3.777,-3.7734,-3.7733,-3.7732,-3.7731,0,-3.7801,-3.777,-3.7827,-3.7809,-3.7806,-3.7852,-3.7837,-3.787,-3.785,-3.7892,-3.79,-3.7869,-3.79,-3.7868,-3.7896,-3.7879,-3.7959,-3.7937,-3.7959,-3.7954,-3.8021,-3.8016,-3.8238,-3.8266,-3.805,-3.8052,-3.8054,0,-3.7898,-3.7939,-3.7926,-3.7944,-3.7943,-3.7973,-3.7986,-3.7944,-3.7961,-3.7965,-3.7998,-3.8023,-3.8042,-3.8095,-3.8076,-3.8098,-3.8078,-3.8154,-3.8081,-3.8094,-3.8083,-3.8082,-3.8087,-3.817,-3.8173,-3.8175,-3.8176,0,-3.8076,-3.8059,-3.808,-3.8098,-3.8116,-3.8128,-3.8135,-3.8153,-3.811,-3.8132,-3.8163,-3.8177,-3.8207,-3.8235,-3.8252,-3.8248,-3.8207,-3.8199,-3.8216,-3.8231,-3.8243,-3.824,-3.8002,-3.8195,-3.8193,-3.8192,-3.8191,-3.819,-3.821,-3.8245,-3.8242,-3.8269,-3.827,-3.8279,-3.8309,-3.8294,-3.8318,-3.8339,-3.8313,-3.8352,-3.8352,-3.837,-3.8372,-3.8403,-3.8371,-3.8394,-3.84,-3.8407,-3.8418,-3.8237,-3.8405,-3.8405,-3.8404,-3.8404,-3.8403,0,-3.8387,-3.8382,-3.8407,-3.842,-3.8442,-3.8399,-3.8406,-3.8428,-3.8463,-3.8466,-3.8486,-3.8523,-3.8549,-3.8533,-3.8557,-3.8585,-3.8567,-3.8593,-3.8592,-3.8592,-3.8444,-3.8429,-3.8608,-3.8608,-3.8607,-3.8607,-3.8607,-3.8607,-3.8482,-3.8539,-3.8522,-3.8581,-3.8575,-3.8613,-3.8621,-3.863,-3.8632,-3.8676,-3.8698,-3.8687,-3.8683,-3.8706,-3.873,-3.8725,-3.8737,-3.8771,-3.876,-3.8622,-3.8602,-3.8583,-3.8568,-3.8773,-3.8774,-3.8905,-3.8906,-3.8907]},{"header":{"parameterUnit":"m.s-1","parameterCategory":1,"la1":30.2991,"la2":30.254,"lo1":-89.0895,"lo2":-89.0444,"dy":0.0017,"dx":0.0017,"nx":28,"ny":28,"refTime":"2025-08-30T03:00:00:Z","depth":0,"parameterNumber":3,"parameterNumberName":"V-component_of_WINDS"},"data":[0,0,0,0,0,0,0,0,0,0,0,0,0,0,0,0,0,0,0,0,0,0,0,0,0,0,0,0,0,0,0,0,0,0,0,0,0,0,0,0,0,0,0,0,0,0,0,0,0,0,0,0,0,0,0,0,0,0,0.2606,0.2605,0,0.2518,0.2517,0.2516,0.246,0.246,0.246,0.246,0.2365,0.2363,0.2361,0,0,0,0,0,0,0,0,0,0,0,0,0,0.2721,0.2719,0.2606,0.2605,0.2604,0.2518,0.2517,0.2516,0.2461,0.246,0.246,0.2459,0.2366,0.2363,0.236,0,0,0,0,0,0,0,0,0,0,0,0,0,0.2656,0.2719,0.2606,0.2566,0.2562,0.2519,0.2517,0.2516,0.2461,0.246,0.246,0.2459,0.2367,0.2363,0.236,0.2349,0,0,0.235,0.2348,0,0,0,0,0,0,0,0,0.266,0.2652,0.2573,0.2569,0.2564,0.25,0.2523,0.246,0.2461,0.2499,0.246,0.2459,0.241,0.2403,0.2387,0.2345,0.234,0.235,0.2348,0.2346,0.2345,0,0,0,0,0,0,0,0.2664,0.2655,0.2571,0.2572,0.2566,0.2551,0.2541,0.2511,0.2458,0.2495,0.2491,0.2482,0.2407,0.2391,0.2385,0.2339,0.235,0.2347,0.2345,0.2343,0.2281,0.2281,0,0,0,0,0,0,0.2676,0.2659,0.2574,0.2569,0.2612,0.2549,0.2538,0.2521,0.2458,0.2448,0.2482,0.248,0.2397,0.2389,0.2381,0.2363,0.2346,0.2343,0.2341,0.228,0.2281,0.2281,0,0,0,0,0,0,0.2679,0.2669,0.2578,0.2613,0.26,0.2548,0.2529,0.2519,0.2503,0.2448,0.2438,0.2476,0.2396,0.2386,0.2357,0.2359,0.2342,0.2339,0.228,0.228,0.2281,0.2327,0,0,0,0,0,0,0.2682,0.267,0.2666,0.2613,0.2598,0.2557,0.2529,0.2518,0.2498,0.2493,0.2439,0.243,0.2395,0.2363,0.2354,0.2354,0.2336,0.228,0.228,0.2281,0.2325,0.2329,0.2332,0,0,0,0,0,0.2686,0.2682,0.2667,0.2657,0.2593,0.2557,0.2548,0.251,0.2498,0.2493,0.2458,0.2431,0.2361,0.236,0.235,0.2349,0.2279,0.228,0.2281,0.2323,0.2328,0.2332,0,0,0,0,0,0,0.2735,0.2674,0.2656,0.2635,0.2602,0.2548,0.254,0.2516,0.2484,0.2481,0.2433,0.2421,0.2397,0.237,0.2371,0.2334,0.2317,0.2315,0.2352,0.2356,0.236,0.2366,0.2333,0,0,0,0,0,0.2744,0.2721,0.2669,0.2655,0.2639,0.2593,0.2576,0.2549,0.2512,0.2497,0.246,0.2423,0.2392,0.2373,0.2342,0.2321,0.2307,0.2315,0.2319,0.2322,0.2321,0.2306,0.2308,0.2284,0.2284,0.2284,0,0,0.2761,0.2725,0.2713,0.2664,0.2635,0.261,0.2581,0.2557,0.2538,0.2493,0.2463,0.2435,0.2391,0.2366,0.2353,0.2343,0.2325,0.2323,0.2326,0.2323,0.2307,0.2309,0.2311,0.2284,0.2284,0.2284,0,0,0.2779,0.2751,0.2735,0.2707,0.2664,0.2633,0.263,0.2579,0.2559,0.2529,0.2494,0.247,0.2419,0.2388,0.2366,0.2373,0.2347,0.2364,0.2382,0.2369,0.237,0.2372,0.2373,0.2374,0.2364,0.2364,0.2364,0,0.2805,0.2769,0.273,0.2708,0.2686,0.2646,0.2629,0.2603,0.2551,0.2537,0.2527,0.2461,0.2428,0.2395,0.2397,0.2381,0.2373,0.2369,0.2374,0.2375,0.2375,0.2375,0.2376,0.2366,0.2366,0.2366,0.2365,0,0.2802,0.2777,0.277,0.2722,0.27,0.2681,0.2637,0.2619,0.2595,0.2564,0.2534,0.2494,0.2453,0.2444,0.2419,0.2406,0.2401,0.2383,0.2364,0.2381,0.238,0.238,0.2369,0.2369,0.2368,0.2367,0,0,0.2847,0.2779,0.2776,0.2754,0.2704,0.2683,0.2661,0.2623,0.2608,0.2574,0.2553,0.251,0.2493,0.2468,0.244,0.2428,0.2434,0.2411,0.2409,0.2415,0.2415,0.2428,0.2429,0.2417,0.2417,0.2417,0.2418,0,0.2856,0.2816,0.2781,0.2753,0.2728,0.269,0.2671,0.2637,0.2608,0.2582,0.255,0.252,0.2501,0.2485,0.2472,0.2436,0.2433,0.2436,0.2395,0.2394,0.2405,0.2428,0.2442,0.2445,0.2418,0.2418,0.2418,0,0.2861,0.283,0.28,0.2752,0.274,0.2723,0.2685,0.2661,0.2622,0.2601,0.2574,0.2544,0.2518,0.2503,0.2465,0.2467,0.2449,0.2429,0.2428,0.2421,0.2406,0.242,0.2445,0.2445,0.2417,0.2417,0.2417,0,0.2895,0.2845,0.2821,0.2803,0.2746,0.2735,0.2711,0.2671,0.265,0.2616,0.2601,0.2565,0.2544,0.2515,0.2476,0.2469,0.2441,0.2423,0.2421,0.2422,0.2415,0.2416,0.2436,0.2407,0.2407,0.2407,0.2407,0,0.2907,0.289,0.2835,0.282,0.2799,0.2758,0.2738,0.271,0.2675,0.2652,0.2616,0.2595,0.2546,0.2518,0.2487,0.2459,0.245,0.2432,0.2423,0.2434,0.2436,0.242,0.2418,0.2407,0.2407,0.2407,0.2407,0,0.294,0.2903,0.2874,0.2823,0.281,0.2796,0.2752,0.2735,0.2705,0.2676,0.2667,0.2619,0.2585,0.2544,0.2496,0.2475,0.2449,0.2437,0.2463,0.2457,0.2457,0.2457,0.2466,0.2464,0.2438,0.2438,0.2439,0,0.295,0.2936,0.2884,0.2867,0.2844,0.2817,0.2796,0.2755,0.2734,0.2688,0.2676,0.264,0.2608,0.2555,0.2515,0.2478,0.2464,0.247,0.2458,0.2469,0.2462,0.2462,0.246,0.2472,0.2473,0.2473,0.2473,0,0.2971,0.2953,0.2924,0.2889,0.2865,0.2836,0.2804,0.2792,0.2744,0.2722,0.2687,0.2663,0.2615,0.2579,0.2537,0.2509,0.2483,0.2478,0.2475,0.2485,0.2499,0.249,0.2469,0.2477,0.2477,0.2476,0.2476,0.2476,0.2991,0.2976,0.2937,0.2906,0.2879,0.285,0.2831,0.2799,0.2771,0.2729,0.2706,0.2672,0.2632,0.2573,0.2547,0.2518,0.2509,0.2505,0.2504,0.2503,0.2506,0.2506,0.2511,0.251,0.251,0.251,0.251,0,0.3008,0.2981,0.2953,0.2911,0.2886,0.2866,0.283,0.281,0.2781,0.2746,0.2717,0.2676,0.2641,0.2599,0.256,0.2545,0.2532,0.2536,0.2536,0.253,0.2517,0.2523,0.2548,0.2548,0.2548,0.2548,0.2548,0.2548,0.3014,0.2987,0.2965,0.2924,0.2897,0.2865,0.2846,0.2818,0.2791,0.2748,0.2719,0.2692,0.2654,0.2612,0.2578,0.2567,0.2553,0.2561,0.2545,0.2534,0.2531,0.2528,0.2532,0.2559,0.2559,0.256,0.256,0.256]}]]